Weather History for KSUW - June, 2013

Change the Weather History Date:

Wednesday, June 5, 2013

  Actual Average Record
Temperature  
Mean Temperature 42 °F -  
Max Temperature 43 °F 66 °F 92 °F (1988)
Min Temperature 40 °F 44 °F 27 °F (1964)
Degree Days  
Heating Degree Days 24    
Moisture  
Dew Point 39 °F    
Average Humidity 92    
Maximum Humidity 99    
Minimum Humidity 83    
Precipitation  
Precipitation 0.44 in - - ()
Sea Level Pressure  
Sea Level Pressure 30.09 in    
Wind  
Wind Speed 9 mph (ENE)    
Max Wind Speed 17 mph    
Max Gust Speed 23 mph    
Visibility 8 miles    
Events Rain    
Averages and records for this station are not official NWS values.
T = Trace of Precipitation, MM = Missing Value Source: NWS Daily Summary

Daily Weather History Graph

Daily Weather History Graph

Search for Another Location

Airport or City:

Trip Planner

Search our weather history database for the weather conditions in past years. The results will help you decide how hot, cold, wet, or windy it might be!

Date:

Astronomy

Jun. 05, 2013 Rise Set
Actual Time 5:16 AM CDT 8:57 PM CDT
Civil Twilight 4:37 AM CDT 9:36 PM CDT
Nautical Twilight 3:45 AM CDT 10:28 PM CDT
Astronomical Twilight 2:33 AM CDT 11:41 PM CDT
Moon 3:30 AM CDT (6/5) 6:17 PM CDT (6/5)
Length of Visible Light 16h 59m
Length of Day
15h 41m
Waning Crescent, 8% of the Moon is Illuminated
Jun 5
Waning Crescent
Jun 8
New
Jun 16
First Quarter
Jun 23
Full
Jun 29
Last Quarter

Hourly Weather History & Observations

Time (CDT) Temp. Windchill Dew Point Humidity Pressure Visibility Wind Dir Wind Speed Gust Speed Precip Events Conditions
12:15 AM 41.9 °F 40.0 °F 40.1 °F 93% 30.14 in 10.0 mi NNE 3.5 mph - 0.01 in Rain Light Rain
12:35 AM 41.7 °F 38.8 °F 38.5 °F 88% 30.13 in 10.0 mi NNE 4.6 mph - 0.02 in Rain Rain
12:55 AM 41.2 °F 36.6 °F 38.7 °F 91% 30.13 in 10.0 mi NE 6.9 mph - 0.02 in   Light Drizzle
1:15 AM 41.4 °F 38.4 °F 38.3 °F 89% 30.12 in 10.0 mi ENE 4.6 mph - N/A   Overcast
1:35 AM 41.2 °F 37.3 °F 37.8 °F 88% 30.13 in 10.0 mi NE 5.8 mph - N/A   Overcast
1:55 AM 41.2 °F 38.2 °F 37.2 °F 86% 30.13 in 10.0 mi NNE 4.6 mph - N/A   Overcast
2:15 AM 41.0 °F 36.4 °F 37.0 °F 86% 30.12 in 10.0 mi NE 6.9 mph - N/A   Overcast
2:35 AM 40.6 °F 36.0 °F 37.4 °F 88% 30.11 in 10.0 mi ENE 6.9 mph - N/A   Overcast
2:55 AM 40.6 °F 36.7 °F 37.6 °F 89% 30.11 in 10.0 mi NE 5.8 mph - N/A   Light Drizzle
3:15 AM 41.0 °F 35.8 °F 37.8 °F 88% 30.12 in 10.0 mi NE 8.1 mph - N/A   Drizzle
3:35 AM 41.2 °F 36.6 °F 37.6 °F 87% 30.11 in 10.0 mi ENE 6.9 mph - N/A   Overcast
3:55 AM 41.7 °F 36.7 °F 37.6 °F 85% 30.11 in 10.0 mi ENE 8.1 mph - N/A   Overcast
4:15 AM 41.9 °F 36.3 °F 37.4 °F 84% 30.11 in 10.0 mi NE 9.2 mph - N/A   Overcast
4:35 AM 41.9 °F 36.9 °F 37.6 °F 85% 30.11 in 10.0 mi NE 8.1 mph - N/A   Overcast
4:55 AM 41.5 °F 37.8 °F 37.9 °F 87% 30.12 in 5.0 mi ENE 5.8 mph - 0.03 in Rain Rain
5:15 AM 41.0 °F 36.4 °F 38.5 °F 91% 30.12 in 7.0 mi East 6.9 mph - 0.04 in Rain Rain
5:35 AM 40.5 °F 34.1 °F 38.7 °F 93% 30.10 in 7.0 mi NE 10.4 mph - 0.09 in Rain Rain
5:55 AM 40.3 °F 36.3 °F 39.2 °F 96% 30.11 in 7.0 mi NE 5.8 mph - 0.14 in Rain Light Rain
6:15 AM 40.6 °F 34.3 °F 39.7 °F 97% 30.09 in 3.0 mi ENE 10.4 mph - 0.07 in Rain Heavy Rain
6:35 AM 40.8 °F 33.3 °F 39.6 °F 95% 30.07 in 5.0 mi ENE 13.8 mph 17.3 mph 0.15 in Rain Rain
6:55 AM 40.8 °F 33.7 °F 39.9 °F 97% 30.10 in 4.0 mi East 12.7 mph 19.6 mph 0.22 in Rain Rain
7:15 AM 41.0 °F 35.8 °F 40.1 °F 97% 30.11 in 10.0 mi ENE 8.1 mph - 0.01 in Rain Rain
7:35 AM 41.0 °F 35.8 °F 40.1 °F 97% 30.10 in 10.0 mi NE 8.1 mph - 0.01 in   Overcast
7:55 AM 40.6 °F 34.3 °F 40.1 °F 98% 30.09 in 10.0 mi ENE 10.4 mph - 0.01 in   Overcast
8:15 AM 40.6 °F 34.3 °F 40.1 °F 98% 30.10 in 10.0 mi ENE 10.4 mph 16.1 mph N/A   Overcast
8:35 AM 40.6 °F 33.0 °F 40.3 °F 99% 30.10 in 10.0 mi ENE 13.8 mph 17.3 mph N/A   Overcast
8:55 AM 41.0 °F 33.9 °F 40.5 °F 98% 30.09 in 5.0 mi ENE 12.7 mph 18.4 mph N/A   Overcast
9:15 AM 41.2 °F 35.0 °F 41.0 °F 99% 30.10 in 4.0 mi ENE 10.4 mph - N/A   Overcast
9:35 AM 41.2 °F 35.0 °F 41.0 °F 99% 30.09 in 2.0 mi ENE 10.4 mph 16.1 mph N/A   Overcast
9:55 AM 41.2 °F 35.0 °F 41.0 °F 99% 30.09 in 1.5 mi NE 10.4 mph - N/A   Overcast
10:15 AM 41.0 °F 34.3 °F 40.8 °F 99% 30.10 in 1.5 mi ENE 11.5 mph 17.3 mph N/A   Overcast
10:35 AM 41.2 °F 35.5 °F 41.0 °F 99% 30.09 in 1.8 mi ENE 9.2 mph - N/A   Overcast
10:55 AM 41.2 °F 34.1 °F 41.0 °F 99% 30.09 in 2.5 mi ENE 12.7 mph 16.1 mph N/A   Overcast
11:15 AM 41.9 °F 35.4 °F 41.5 °F 99% 30.07 in 2.0 mi ENE 11.5 mph 20.7 mph N/A   Overcast
11:35 AM 42.1 °F 34.9 °F 41.9 °F 99% 30.07 in 3.0 mi ENE 13.8 mph 17.3 mph N/A   Overcast
11:55 AM 42.3 °F 36.8 °F 42.1 °F 99% 30.08 in 3.0 mi ENE 9.2 mph - N/A   Overcast
12:15 PM 42.4 °F 38.8 °F 42.3 °F 99% 30.08 in 5.0 mi ENE 5.8 mph - N/A   Overcast
12:35 PM 42.3 °F 36.3 °F 41.9 °F 99% 30.08 in 5.0 mi ENE 10.4 mph - N/A   Overcast
12:55 PM 42.3 °F 35.9 °F 42.1 °F 99% 30.07 in 4.0 mi ENE 11.5 mph 17.3 mph N/A Rain Light Rain
1:15 PM 43.2 °F 37.9 °F 42.8 °F 99% 30.08 in 3.0 mi ENE 9.2 mph 16.1 mph N/A   Light Drizzle
1:35 PM 43.3 °F 36.8 °F 42.8 °F 98% 30.07 in 4.0 mi ENE 12.7 mph 18.4 mph 0.01 in Rain Light Rain
1:55 PM 43.3 °F 36.8 °F 42.8 °F 98% 30.07 in 3.0 mi ENE 12.7 mph - 0.01 in   Light Drizzle
2:15 PM 43.2 °F 37.0 °F 42.1 °F 96% 30.07 in 7.0 mi ENE 11.5 mph 20.7 mph 0.01 in   Overcast
2:35 PM 42.8 °F 36.2 °F 41.4 °F 95% 30.07 in 10.0 mi ENE 12.7 mph 23.0 mph 0.01 in   Overcast
2:55 PM 42.8 °F 34.8 °F 41.2 °F 94% 30.08 in 10.0 mi ENE 17.3 mph 23.0 mph 0.01 in   Overcast
3:15 PM 42.3 °F 35.5 °F 41.0 °F 95% 30.08 in 10.0 mi ENE 12.7 mph 21.9 mph N/A   Overcast
3:35 PM 41.9 °F 35.0 °F 40.1 °F 93% 30.08 in 10.0 mi ENE 12.7 mph 20.7 mph N/A   Overcast
3:55 PM 41.7 °F 34.1 °F 38.7 °F 89% 30.08 in 10.0 mi ENE 15.0 mph 19.6 mph N/A   Overcast
4:15 PM 41.7 °F 34.4 °F 37.8 °F 86% 30.08 in 10.0 mi ENE 13.8 mph 20.7 mph N/A   Overcast
4:35 PM 41.9 °F 35.0 °F 37.2 °F 83% 30.08 in 10.0 mi ENE 12.7 mph 21.9 mph N/A   Overcast
4:55 PM 41.9 °F 35.0 °F 37.4 °F 84% 30.08 in 10.0 mi ENE 12.7 mph 20.7 mph N/A   Overcast
5:15 PM 41.9 °F 35.0 °F 37.0 °F 83% 30.09 in 10.0 mi ENE 12.7 mph 19.6 mph N/A   Overcast
5:35 PM 41.9 °F 36.9 °F 37.4 °F 84% 30.09 in 10.0 mi ENE 8.1 mph 18.4 mph N/A   Overcast
5:55 PM 41.2 °F 34.1 °F 37.6 °F 87% 30.09 in 10.0 mi ENE 12.7 mph 19.6 mph N/A   Overcast
6:15 PM 41.2 °F 35.0 °F 37.9 °F 88% 30.08 in 10.0 mi ENE 10.4 mph 18.4 mph N/A   Overcast
6:35 PM 41.2 °F 33.7 °F 37.4 °F 86% 30.07 in 10.0 mi ENE 13.8 mph 19.6 mph N/A   Overcast
6:55 PM 41.2 °F 35.0 °F 37.4 °F 86% 30.07 in 10.0 mi ENE 10.4 mph 18.4 mph N/A   Overcast
7:15 PM 41.0 °F 34.7 °F 38.1 °F 89% 30.07 in 10.0 mi ENE 10.4 mph - N/A   Overcast
7:35 PM 41.5 °F 35.0 °F 38.5 °F 89% 30.07 in 10.0 mi ENE 11.5 mph 17.3 mph N/A   Overcast
7:55 PM 41.9 °F 35.9 °F 38.3 °F 87% 30.07 in 10.0 mi ENE 10.4 mph - N/A   Overcast
8:15 PM 41.9 °F 34.3 °F 37.9 °F 86% 30.07 in 10.0 mi ENE 15.0 mph - N/A   Overcast
8:35 PM 41.4 °F 34.7 °F 37.6 °F 86% 30.07 in 10.0 mi ENE 11.5 mph 17.3 mph N/A   Overcast
8:55 PM 41.2 °F 34.1 °F 37.6 °F 87% 30.07 in 10.0 mi ENE 12.7 mph - N/A   Overcast
9:15 PM 41.2 °F 34.5 °F 37.4 °F 86% 30.07 in 10.0 mi ENE 11.5 mph 17.3 mph N/A   Overcast
9:35 PM 41.0 °F 35.2 °F 37.6 °F 88% 30.07 in 10.0 mi ENE 9.2 mph 16.1 mph N/A   Overcast
9:55 PM 41.5 °F 35.4 °F 38.3 °F 88% 30.07 in 10.0 mi ENE 10.4 mph 17.3 mph N/A   Overcast
10:15 PM 41.7 °F 35.2 °F 38.3 °F 88% 30.07 in 10.0 mi ENE 11.5 mph 18.4 mph N/A   Overcast
10:35 PM 42.3 °F 36.8 °F 38.1 °F 85% 30.07 in 10.0 mi ENE 9.2 mph - N/A   Overcast
10:55 PM 42.3 °F 36.8 °F 37.6 °F 83% 30.07 in 10.0 mi ENE 9.2 mph 17.3 mph N/A   Overcast
11:15 PM 41.9 °F 35.9 °F 38.5 °F 88% 30.07 in 7.0 mi ENE 10.4 mph 19.6 mph N/A   Overcast
11:35 PM 41.4 °F 35.2 °F 38.8 °F 91% 30.07 in 10.0 mi ENE 10.4 mph 16.1 mph N/A   Overcast
11:55 PM 42.3 °F 36.8 °F 38.8 °F 88% 30.07 in 10.0 mi ENE 9.2 mph - N/A   Overcast